Location: Recife
(8.0585°S, 34.8848°W)
Time: 12:49:30
(UTC-03:00)

Vanguard 2 - Pass Details

Date: 15 April 2026
Orbit: 553 x 2895 km, 32.9° (Epoch: 13 May)

Event Time Altitude Azimuth Distance (km) Brightness Sun altitude
Exits shadow 03:55:06 12° 221° (SW) 5,022 11.2 -22.1°
Maximum altitude 04:06:43 34° 163° (SSE) 2,818 10.4 -19.2°
Drops below altitude 10° 04:14:59 10° 102° (ESE) 3,474 12.0 -17.2°
Sets 04:17:46 0° 91° (E) 4,150 13.0 -16.5°
